EJU27KL EHAM-LFPG

Flight info

Callsign EJU27KL
Flight time 0h 48m
Altitude 29000
Route WOODY N872 DENOX DCT SISGA DCT DELOM DCT MOPIL
Aircraft A20N/M-SDE2E3FGHIRWXY/LB1

Departure

Time 2026-05-05 14:03
Airport Amsterdam Airport Schiphol (EHAM)

Arrival

Time 2026-05-05 14:51
Airport Charles de Gaulle International Airport (LFPG)
Time Latitude Longitude Altitude Speed Heading
2026-05-05 13:07 52.31072 4.75564 3 ft 0 kts 147°
2026-05-05 13:50 52.31076 4.75560 3 ft 2 kts 145°
2026-05-05 13:51 52.31086 4.75542 3 ft 2 kts 123°
2026-05-05 13:51 52.31093 4.75520 2 ft 2 kts 105°
2026-05-05 13:51 52.31095 4.75495 2 ft 2 kts 88°
2026-05-05 13:51 52.31092 4.75471 2 ft 2 kts 71°
2026-05-05 13:52 52.31086 4.75448 1 ft 2 kts 54°
2026-05-05 13:52 52.31078 4.75428 1 ft 2 kts 60°
2026-05-05 13:52 52.31070 4.75407 1 ft 2 kts 58°
2026-05-05 13:52 52.31065 4.75394 1 ft 0 kts 59°
2026-05-05 13:55 52.31067 4.75401 1 ft 3 kts 60°
2026-05-05 13:55 52.31083 4.75439 1 ft 5 kts 52°
2026-05-05 13:55 52.31123 4.75473 2 ft 8 kts
2026-05-05 13:55 52.31203 4.75460 1 ft 13 kts 355°
2026-05-05 13:56 52.31301 4.75452 1 ft 14 kts 356°
2026-05-05 13:56 52.31399 4.75444 1 ft 14 kts 358°
2026-05-05 13:56 52.31490 4.75421 1 ft 11 kts 324°
2026-05-05 13:56 52.31508 4.75288 0 ft 12 kts 268°
2026-05-05 13:57 52.31505 4.75146 -1 ft 12 kts 268°
2026-05-05 13:57 52.31499 4.74992 -4 ft 14 kts 266°
2026-05-05 13:57 52.31493 4.74835 -4 ft 13 kts 267°
2026-05-05 13:57 52.31486 4.74670 -6 ft 15 kts 267°
2026-05-05 13:58 52.31480 4.74503 -6 ft 14 kts 266°
2026-05-05 13:58 52.31475 4.74336 -6 ft 14 kts 268°
2026-05-05 13:58 52.31453 4.74189 -4 ft 13 kts 226°
2026-05-05 13:58 52.31364 4.74136 -3 ft 14 kts 181°
2026-05-05 13:59 52.31160 4.74113 -4 ft 15 kts 183°
2026-05-05 13:59 52.31049 4.74102 -4 ft 16 kts 182°
2026-05-05 14:00 52.30789 4.74077 -10 ft 20 kts 181°
2026-05-05 14:00 52.30666 4.74071 -10 ft 13 kts 185°
2026-05-05 14:00 52.30600 4.74033 -10 ft 8 kts 258°
2026-05-05 14:00 52.30591 4.73978 -10 ft 3 kts 287°
2026-05-05 14:01 52.30609 4.73928 -10 ft 5 kts 306°
2026-05-05 14:01 52.30645 4.73889 -10 ft 6 kts 331°
2026-05-05 14:01 52.30691 4.73854 -10 ft 7 kts 337°
2026-05-05 14:01 52.30742 4.73817 -10 ft 8 kts 333°
2026-05-05 14:02 52.30796 4.73790 -9 ft 11 kts
2026-05-05 14:02 52.31062 4.73815 -5 ft 75 kts
2026-05-05 14:02 52.31822 4.73879 -2 ft 140 kts
2026-05-05 14:02 52.32817 4.73971 522 ft 146 kts
2026-05-05 14:03 52.33804 4.74321 1147 ft 150 kts 22°
2026-05-05 14:03 52.34806 4.75019 1646 ft 164 kts 25°
2026-05-05 14:03 52.35889 4.75779 2143 ft 179 kts 25°
2026-05-05 14:03 52.36937 4.77011 2603 ft 198 kts 53°
2026-05-05 14:04 52.37398 4.79258 3087 ft 224 kts 87°
2026-05-05 14:04 52.37085 4.81769 3943 ft 232 kts 109°
2026-05-05 14:04 52.36279 4.84009 4841 ft 238 kts 130°
2026-05-05 14:04 52.34906 4.85553 5563 ft 252 kts 161°
2026-05-05 14:05 52.33031 4.85729 6168 ft 271 kts 187°
2026-05-05 14:05 52.31085 4.85291 6909 ft 282 kts 187°
2026-05-05 14:05 52.29082 4.84997 7844 ft 286 kts 183°
2026-05-05 14:05 52.27063 4.84853 8766 ft 289 kts 181°
2026-05-05 14:06 52.25027 4.84779 9661 ft 293 kts 180°
2026-05-05 14:06 52.22966 4.84730 10482 ft 299 kts 180°
2026-05-05 14:06 52.20790 4.84686 10998 ft 316 kts 180°
2026-05-05 14:06 52.18525 4.84642 11423 ft 334 kts 180°
2026-05-05 14:07 52.16186 4.84594 12005 ft 345 kts 181°
2026-05-05 14:07 52.13789 4.84053 12794 ft 350 kts 196°
2026-05-05 14:07 52.11485 4.82695 13605 ft 353 kts 201°
2026-05-05 14:07 52.09210 4.81226 14373 ft 357 kts 201°
2026-05-05 14:08 52.06889 4.79806 15147 ft 361 kts 200°
2026-05-05 14:08 52.04519 4.78439 15928 ft 363 kts 199°
2026-05-05 14:08 52.02144 4.77006 16691 ft 365 kts 202°
2026-05-05 14:08 51.99833 4.75420 17440 ft 367 kts 203°
2026-05-05 14:09 51.97467 4.73778 18130 ft 370 kts 203°
2026-05-05 14:09 51.95096 4.72164 18835 ft 373 kts 202°
2026-05-05 14:09 51.92704 4.70561 19501 ft 375 kts 202°
2026-05-05 14:09 51.90301 4.68965 20160 ft 378 kts 202°
2026-05-05 14:10 51.87859 4.67349 20811 ft 381 kts 202°
2026-05-05 14:10 51.85430 4.65745 21444 ft 384 kts 202°
2026-05-05 14:10 51.82964 4.64118 22042 ft 387 kts 202°
2026-05-05 14:10 51.80447 4.62506 22632 ft 389 kts 198°
2026-05-05 14:11 51.77837 4.61374 23344 ft 388 kts 193°
2026-05-05 14:11 51.75225 4.60448 24174 ft 384 kts 192°
2026-05-05 14:11 51.72657 4.59546 24977 ft 380 kts 192°
2026-05-05 14:11 51.70093 4.58621 25729 ft 377 kts 193°
2026-05-05 14:12 51.67561 4.57685 26476 ft 374 kts 193°
2026-05-05 14:12 51.65051 4.56744 27212 ft 370 kts 193°
2026-05-05 14:12 51.62589 4.55815 27862 ft 368 kts 193°
2026-05-05 14:12 51.60080 4.54862 28409 ft 369 kts 193°
2026-05-05 14:13 51.57597 4.53919 28809 ft 371 kts 193°
2026-05-05 14:13 51.55086 4.52965 28878 ft 372 kts 193°
2026-05-05 14:13 51.52543 4.51999 28882 ft 383 kts 193°
2026-05-05 14:13 51.49917 4.51002 28884 ft 396 kts 193°
2026-05-05 14:14 51.47195 4.49969 28882 ft 407 kts 193°
2026-05-05 14:14 51.44410 4.48915 28882 ft 419 kts 193°
2026-05-05 14:14 51.38626 4.46732 28877 ft 439 kts 193°
2026-05-05 14:15 51.32618 4.44568 28881 ft 445 kts 192°
2026-05-05 14:15 51.26567 4.42412 28884 ft 445 kts 192°
2026-05-05 14:16 51.20566 4.40268 28881 ft 445 kts 192°
2026-05-05 14:16 51.14497 4.38416 28879 ft 444 kts 189°
2026-05-05 14:17 51.08382 4.37088 28875 ft 443 kts 187°
2026-05-05 14:17 51.02306 4.35871 28876 ft 443 kts 187°
2026-05-05 14:18 50.96184 4.34608 28880 ft 443 kts 187°
2026-05-05 14:18 50.90092 4.33334 28883 ft 444 kts 186°
2026-05-05 14:19 50.83982 4.32056 28880 ft 444 kts 187°
2026-05-05 14:19 50.78009 4.29671 28882 ft 445 kts 196°
2026-05-05 14:20 50.72100 4.26721 28876 ft 446 kts 195°
2026-05-05 14:20 50.66172 4.23898 28869 ft 447 kts 195°
2026-05-05 14:21 50.60211 4.21133 28868 ft 447 kts 195°
2026-05-05 14:21 50.54317 4.18146 28865 ft 448 kts 196°
2026-05-05 14:22 50.48426 4.15089 28861 ft 448 kts 197°
2026-05-05 14:22 50.42506 4.12052 28856 ft 448 kts 196°
2026-05-05 14:23 50.36601 4.09041 28850 ft 449 kts 196°
2026-05-05 14:23 50.30658 4.06018 28843 ft 450 kts 196°
2026-05-05 14:24 50.24727 4.03010 28836 ft 451 kts 196°
2026-05-05 14:24 50.18747 3.99989 28834 ft 452 kts 196°
2026-05-05 14:25 50.12801 3.96990 28524 ft 453 kts 196°
2026-05-05 14:25 50.09779 3.95469 28247 ft 455 kts 196°
2026-05-05 14:25 50.06776 3.93959 27971 ft 456 kts 196°
2026-05-05 14:26 50.03759 3.92443 27698 ft 457 kts 195°
2026-05-05 14:26 50.00763 3.90941 27420 ft 458 kts 196°
2026-05-05 14:26 49.97717 3.89415 27144 ft 459 kts 196°
2026-05-05 14:26 49.94680 3.87897 26587 ft 461 kts 196°
2026-05-05 14:27 49.91610 3.86366 25684 ft 463 kts 196°
2026-05-05 14:27 49.88576 3.84854 25063 ft 465 kts 196°
2026-05-05 14:27 49.85475 3.83309 24453 ft 468 kts 196°
2026-05-05 14:27 49.82361 3.81759 23808 ft 471 kts 196°
2026-05-05 14:28 49.79274 3.80226 23172 ft 473 kts 197°
2026-05-05 14:28 49.76133 3.78667 22523 ft 472 kts 197°
2026-05-05 14:28 49.73056 3.77139 21867 ft 468 kts 196°
2026-05-05 14:28 49.69954 3.75605 21205 ft 464 kts 196°
2026-05-05 14:29 49.66898 3.74096 20543 ft 460 kts 197°
2026-05-05 14:29 49.63895 3.72614 19894 ft 456 kts 196°
2026-05-05 14:29 49.60897 3.71137 19234 ft 452 kts 197°
2026-05-05 14:29 49.57936 3.69679 18638 ft 445 kts 196°
2026-05-05 14:30 49.55013 3.68240 17993 ft 437 kts 196°
2026-05-05 14:30 49.52145 3.66833 17530 ft 425 kts 197°
2026-05-05 14:30 49.49415 3.65494 17280 ft 410 kts 197°
2026-05-05 14:30 49.46805 3.63821 16991 ft 408 kts 211°
2026-05-05 14:31 49.44761 3.60821 16716 ft 411 kts 235°
2026-05-05 14:31 49.43623 3.56811 16449 ft 413 kts 256°
2026-05-05 14:31 49.43015 3.52522 16179 ft 408 kts 258°
2026-05-05 14:31 49.42413 3.48346 15906 ft 395 kts 256°
2026-05-05 14:32 49.41669 3.44410 15635 ft 385 kts 251°
2026-05-05 14:32 49.40721 3.40563 15366 ft 383 kts 248°
2026-05-05 14:32 49.39726 3.36813 15098 ft 382 kts 248°
2026-05-05 14:32 49.38709 3.33033 14821 ft 381 kts 247°
2026-05-05 14:33 49.37699 3.29283 14546 ft 380 kts 247°
2026-05-05 14:33 49.36702 3.25581 14274 ft 379 kts 247°
2026-05-05 14:33 49.35695 3.21842 13996 ft 378 kts 248°
2026-05-05 14:33 49.34697 3.18139 13740 ft 377 kts 248°
2026-05-05 14:34 49.33701 3.14446 13491 ft 375 kts 248°
2026-05-05 14:34 49.32715 3.10794 13243 ft 374 kts 248°
2026-05-05 14:34 49.31725 3.07131 13027 ft 372 kts 248°
2026-05-05 14:34 49.30726 3.03445 12948 ft 372 kts 247°
2026-05-05 14:35 49.29733 2.99787 12874 ft 372 kts 248°
2026-05-05 14:35 49.28739 2.96132 12817 ft 372 kts 248°
2026-05-05 14:35 49.27750 2.92504 12815 ft 372 kts 248°
2026-05-05 14:35 49.26760 2.88873 12813 ft 372 kts 247°
2026-05-05 14:36 49.25760 2.85209 12734 ft 372 kts 248°
2026-05-05 14:36 49.24773 2.81606 12488 ft 370 kts 248°
2026-05-05 14:36 49.23776 2.77969 12234 ft 369 kts 248°
2026-05-05 14:36 49.22781 2.74346 11985 ft 367 kts 247°
2026-05-05 14:37 49.21796 2.70768 11737 ft 366 kts 247°
2026-05-05 14:37 49.20815 2.67205 11481 ft 365 kts 247°
2026-05-05 14:37 49.19842 2.63680 11214 ft 363 kts 247°
2026-05-05 14:37 49.18874 2.60121 10911 ft 362 kts 250°
2026-05-05 14:38 49.18201 2.56437 10586 ft 356 kts 260°
2026-05-05 14:38 49.17945 2.52749 10402 ft 342 kts 266°
2026-05-05 14:38 49.17571 2.49249 10196 ft 331 kts 256°
2026-05-05 14:38 49.16933 2.45925 10007 ft 320 kts 253°
2026-05-05 14:39 49.16272 2.42756 9821 ft 310 kts 252°
2026-05-05 14:39 49.15616 2.39661 9626 ft 301 kts 252°
2026-05-05 14:39 49.14976 2.36650 9324 ft 297 kts 252°
2026-05-05 14:39 49.14335 2.33648 8935 ft 296 kts 252°
2026-05-05 14:40 49.13701 2.30699 8546 ft 295 kts 252°
2026-05-05 14:40 49.13051 2.27694 8164 ft 293 kts 252°
2026-05-05 14:40 49.12414 2.24770 7787 ft 292 kts 252°
2026-05-05 14:40 49.11771 2.21839 7404 ft 290 kts 252°
2026-05-05 14:41 49.11129 2.18920 7027 ft 289 kts 252°
2026-05-05 14:41 49.10496 2.16056 6659 ft 287 kts 252°
2026-05-05 14:41 49.09859 2.13184 6432 ft 284 kts 252°
2026-05-05 14:41 49.09220 2.10314 6247 ft 286 kts 252°
2026-05-05 14:42 49.08582 2.07447 6048 ft 285 kts 252°
2026-05-05 14:42 49.07932 2.04587 5967 ft 285 kts 248°
2026-05-05 14:42 49.06884 2.02083 5875 ft 285 kts 222°
2026-05-05 14:42 49.05209 2.00543 5797 ft 282 kts 194°
2026-05-05 14:43 49.03280 2.00332 5721 ft 276 kts 166°
2026-05-05 14:43 49.01567 2.01455 5647 ft 270 kts 138°
2026-05-05 14:43 49.00295 2.03513 5483 ft 266 kts 124°
2026-05-05 14:43 48.99196 2.05780 5392 ft 266 kts 122°
2026-05-05 14:44 48.98136 2.08070 5314 ft 265 kts 122°
2026-05-05 14:44 48.97306 2.10540 5232 ft 259 kts 105°
2026-05-05 14:44 48.96959 2.13131 5150 ft 243 kts 91°
2026-05-05 14:44 48.97003 2.15609 5070 ft 229 kts 81°
2026-05-05 14:45 48.97207 2.17946 4997 ft 217 kts 80°
2026-05-05 14:45 48.97399 2.20183 4927 ft 212 kts 81°
2026-05-05 14:45 48.97556 2.22389 4687 ft 212 kts 82°
2026-05-05 14:45 48.97687 2.24634 4400 ft 211 kts 83°
2026-05-05 14:46 48.97798 2.26825 4119 ft 206 kts 83°
2026-05-05 14:46 48.97899 2.28955 3843 ft 199 kts 83°
2026-05-05 14:46 48.97995 2.31020 3579 ft 192 kts 83°
2026-05-05 14:46 48.98085 2.32974 3422 ft 181 kts 82°
2026-05-05 14:47 48.98176 2.34867 3163 ft 176 kts 82°
2026-05-05 14:47 48.98266 2.36701 2903 ft 174 kts 82°
2026-05-05 14:47 48.98358 2.38541 2658 ft 175 kts 81°
2026-05-05 14:47 48.98450 2.40379 2413 ft 175 kts 82°
2026-05-05 14:48 48.98542 2.42202 2177 ft 171 kts 81°
2026-05-05 14:48 48.98629 2.43958 1936 ft 158 kts 81°
2026-05-05 14:48 48.98712 2.45580 1760 ft 154 kts 81°
2026-05-05 14:48 48.98795 2.47163 1569 ft 146 kts 81°
2026-05-05 14:49 48.98871 2.48639 1356 ft 132 kts 81°
2026-05-05 14:49 48.98941 2.50011 1172 ft 131 kts 81°
2026-05-05 14:49 48.99009 2.51390 1040 ft 130 kts 80°
2026-05-05 14:49 48.99073 2.52770 868 ft 132 kts 81°
2026-05-05 14:50 48.99150 2.54148 676 ft 130 kts 79°
2026-05-05 14:50 48.99233 2.55530 506 ft 132 kts 81°
2026-05-05 14:50 48.99309 2.56920 338 ft 133 kts 82°
2026-05-05 14:50 48.99374 2.58139 325 ft 90 kts 85°
2026-05-05 14:51 48.99416 2.58897 319 ft 58 kts 84°
2026-05-05 14:51 48.99484 2.59312 314 ft 36 kts 66°
2026-05-05 14:51 48.99567 2.59590 314 ft 16 kts 65°
2026-05-05 14:51 48.99631 2.59696 314 ft 12 kts
2026-05-05 14:52 48.99663 2.59691 314 ft 4 kts 353°
2026-05-05 14:52 48.99735 2.59681 315 ft 18 kts 355°
2026-05-05 14:52 48.99859 2.59667 319 ft 16 kts 356°
2026-05-05 14:52 48.99952 2.59658 324 ft 5 kts 354°
2026-05-05 14:53 48.99950 2.59658 324 ft 0 kts 354°
2026-05-05 14:53 48.99951 2.59658 324 ft 3 kts 354°
2026-05-05 14:53 49.00016 2.59649 327 ft 11 kts 354°
2026-05-05 14:53 49.00078 2.59588 328 ft 10 kts 282°
2026-05-05 14:54 49.00068 2.59447 328 ft 16 kts 267°
2026-05-05 14:54 49.00055 2.59263 328 ft 18 kts 266°
2026-05-05 14:54 49.00050 2.59070 328 ft 18 kts 266°
2026-05-05 14:54 49.00069 2.58909 328 ft 14 kts 330°
2026-05-05 14:55 49.00167 2.58887 330 ft 14 kts 355°
2026-05-05 14:55 49.00272 2.58874 330 ft 15 kts 354°
2026-05-05 14:55 49.00387 2.58860 331 ft 17 kts 355°
2026-05-05 14:55 49.00505 2.58843 334 ft 16 kts 355°
2026-05-05 14:56 49.00626 2.58831 333 ft 19 kts 356°
2026-05-05 14:56 49.00769 2.58812 334 ft 20 kts 354°
2026-05-05 14:56 49.00848 2.58708 334 ft 15 kts 270°
2026-05-05 14:56 49.00839 2.58562 336 ft 13 kts 267°
2026-05-05 14:57 49.00832 2.58403 339 ft 17 kts 265°
2026-05-05 14:57 49.00821 2.58196 343 ft 21 kts 265°
2026-05-05 14:57 49.00809 2.57987 347 ft 18 kts 266°
2026-05-05 14:57 49.00800 2.57811 350 ft 15 kts 265°
2026-05-05 14:58 49.00790 2.57613 351 ft 21 kts 265°
2026-05-05 14:58 49.00777 2.57374 356 ft 21 kts 265°
2026-05-05 14:58 49.00757 2.57247 360 ft 8 kts 214°
2026-05-05 14:58 49.00692 2.57199 362 ft 13 kts 238°
2026-05-05 14:59 49.00661 2.57050 365 ft 14 kts 257°
2026-05-05 14:59 49.00633 2.56910 366 ft 11 kts 249°
2026-05-05 14:59 49.00575 2.56831 365 ft 9 kts 211°
2026-05-05 14:59 49.00557 2.56814 364 ft 0 kts 212°